Time,TemperatureF,DewpointF,PressureIn,WindDirection,WindDirectionDegrees,WindSpeedMPH,WindSpeedGustMPH,Humidity,HourlyPrecipIn,Conditions,Clouds,dailyrainin,SoftwareType,DateUTC
2012-06-12 00:03:00,73.0,49.0,29.85,East,90,0.0,0.0,43,0.00,,,0.00,,2012-06-12 07:03:00,
2012-06-12 00:12:00,72.0,49.0,29.85,East,90,0.0,0.0,44,0.00,,,0.00,,2012-06-12 07:12:00,
2012-06-12 00:23:00,72.0,49.0,29.85,East,90,0.0,0.0,44,0.00,,,0.00,,2012-06-12 07:23:00,
2012-06-12 00:33:00,72.0,49.0,29.85,East,90,0.0,0.0,44,0.00,,,0.00,,2012-06-12 07:33:00,
2012-06-12 00:43:00,72.0,49.0,29.85,East,90,0.0,0.0,44,0.00,,,0.00,,2012-06-12 07:43:00,
2012-06-12 00:53:00,72.0,47.0,29.85,ENE,67,0.0,0.0,41,0.00,,,0.00,,2012-06-12 07:53:00,
2012-06-12 01:03:00,72.0,48.0,29.86,NE,45,0.0,0.0,42,0.00,,,0.00,,2012-06-12 08:03:00,
2012-06-12 01:12:00,72.0,48.0,29.86,NE,45,0.0,0.0,42,0.00,,,0.00,,2012-06-12 08:12:00,
2012-06-12 01:23:00,71.0,47.0,29.86,NE,45,0.0,0.0,43,0.00,,,0.00,,2012-06-12 08:23:00,
2012-06-12 01:33:00,69.0,47.0,29.86,NE,45,0.0,0.0,45,0.00,,,0.00,,2012-06-12 08:33:00,
2012-06-12 01:43:00,69.0,47.0,29.86,NE,45,0.0,0.0,45,0.00,,,0.00,,2012-06-12 08:43:00,
2012-06-12 01:53:00,69.0,48.0,29.86,ENE,67,0.0,0.0,47,0.00,,,0.00,,2012-06-12 08:53:00,
2012-06-12 02:03:00,68.0,47.0,29.85,ENE,67,0.0,0.0,47,0.00,,,0.00,,2012-06-12 09:03:00,
2012-06-12 02:12:00,69.0,47.0,29.85,ENE,67,0.0,0.0,46,0.00,,,0.00,,2012-06-12 09:12:00,
2012-06-12 02:23:00,69.0,47.0,29.85,ENE,67,0.0,0.0,46,0.00,,,0.00,,2012-06-12 09:23:00,
2012-06-12 02:33:00,68.0,47.0,29.86,ENE,67,3.0,3.0,47,0.00,,,0.00,,2012-06-12 09:33:00,
2012-06-12 02:43:00,68.0,47.0,29.86,ENE,67,3.0,3.0,47,0.00,,,0.00,,2012-06-12 09:43:00,
2012-06-12 02:53:00,68.0,48.0,29.86,ENE,67,0.0,6.0,48,0.00,,,0.00,,2012-06-12 09:53:00,
2012-06-12 03:03:00,66.0,46.0,29.85,ENE,67,0.0,0.0,49,0.00,,,0.00,,2012-06-12 10:03:00,
2012-06-12 03:12:00,66.0,46.0,29.85,ENE,67,0.0,0.0,49,0.00,,,0.00,,2012-06-12 10:12:00,
2012-06-12 03:23:00,66.0,46.0,29.85,ENE,67,0.0,0.0,49,0.00,,,0.00,,2012-06-12 10:23:00,
2012-06-12 03:33:00,66.0,48.0,29.85,ENE,67,0.0,0.0,52,0.00,,,0.00,,2012-06-12 10:33:00,
2012-06-12 03:43:00,65.0,47.0,29.85,ENE,67,0.0,0.0,53,0.00,,,0.00,,2012-06-12 10:43:00,
2012-06-12 03:53:00,65.0,47.0,29.85,ENE,67,0.0,0.0,53,0.00,,,0.00,,2012-06-12 10:53:00,
2012-06-12 04:03:00,64.0,47.0,29.85,ENE,67,0.0,0.0,55,0.00,,,0.00,,2012-06-12 11:03:00,
2012-06-12 04:12:00,64.0,48.0,29.85,ENE,67,0.0,0.0,56,0.00,,,0.00,,2012-06-12 11:12:00,
2012-06-12 04:23:00,64.0,48.0,29.85,ENE,67,0.0,0.0,56,0.00,,,0.00,,2012-06-12 11:23:00,
2012-06-12 04:33:00,64.0,48.0,29.85,ENE,67,0.0,0.0,57,0.00,,,0.00,,2012-06-12 11:33:00,
2012-06-12 04:43:00,64.0,48.0,29.85,ENE,67,0.0,0.0,57,0.00,,,0.00,,2012-06-12 11:43:00,
2012-06-12 04:53:00,64.0,48.0,29.85,ENE,67,0.0,0.0,57,0.00,,,0.00,,2012-06-12 11:53:00,
2012-06-12 05:03:00,63.0,48.0,29.86,ENE,67,0.0,0.0,57,0.00,,,0.00,,2012-06-12 12:03:00,
2012-06-12 05:12:00,63.0,48.0,29.86,ENE,67,0.0,0.0,57,0.00,,,0.00,,2012-06-12 12:12:00,
2012-06-12 05:23:00,63.0,48.0,29.86,ENE,67,0.0,0.0,58,0.00,,,0.00,,2012-06-12 12:23:00,
2012-06-12 05:33:00,63.0,48.0,29.87,ENE,67,0.0,0.0,59,0.00,,,0.00,,2012-06-12 12:33:00,
2012-06-12 05:43:00,63.0,48.0,29.87,ENE,67,0.0,0.0,59,0.00,,,0.00,,2012-06-12 12:43:00,
2012-06-12 05:54:00,63.0,48.0,29.87,ENE,67,0.0,0.0,59,0.00,,,0.00,,2012-06-12 12:54:00,
2012-06-12 06:03:00,62.0,48.0,29.87,ENE,67,0.0,0.0,60,0.00,,,0.00,,2012-06-12 13:03:00,
2012-06-12 06:12:00,62.0,48.0,29.88,ENE,67,0.0,5.0,61,0.00,,,0.00,,2012-06-12 13:12:00,
2012-06-12 06:23:00,62.0,48.0,29.88,ENE,67,0.0,5.0,61,0.00,,,0.00,,2012-06-12 13:23:00,
2012-06-12 06:33:00,62.0,49.0,29.88,East,90,0.0,0.0,62,0.00,,,0.00,,2012-06-12 13:33:00,
2012-06-12 06:43:00,62.0,49.0,29.88,East,90,0.0,0.0,62,0.00,,,0.00,,2012-06-12 13:43:00,
2012-06-12 06:54:00,62.0,48.0,29.88,ENE,67,0.0,0.0,61,0.00,,,0.00,,2012-06-12 13:54:00,
2012-06-12 07:03:00,63.0,49.0,29.89,ENE,67,0.0,0.0,61,0.00,,,0.00,,2012-06-12 14:03:00,
2012-06-12 07:12:00,63.0,49.0,29.89,ENE,67,0.0,0.0,61,0.00,,,0.00,,2012-06-12 14:12:00,
2012-06-12 07:23:00,63.0,48.0,29.89,East,80,5.0,10.0,58,0.00,,,0.00,,2012-06-12 14:23:00,
2012-06-12 07:33:00,64.0,48.0,29.90,ENE,78,8.0,12.0,57,0.00,,,0.00,,2012-06-12 14:33:00,
2012-06-12 07:43:00,64.0,48.0,29.90,ENE,78,8.0,12.0,57,0.00,,,0.00,,2012-06-12 14:43:00,
2012-06-12 07:54:00,66.0,49.0,29.89,East,90,0.0,11.0,55,0.00,,,0.00,,2012-06-12 14:54:00,
2012-06-12 08:03:00,66.0,49.0,29.90,ENE,68,6.0,11.0,55,0.00,,,0.00,,2012-06-12 15:03:00,
2012-06-12 08:12:00,66.0,49.0,29.90,ENE,68,6.0,11.0,55,0.00,,,0.00,,2012-06-12 15:12:00,
2012-06-12 08:23:00,68.0,51.0,29.89,East,88,8.0,15.0,54,0.00,,,0.00,,2012-06-12 15:23:00,
2012-06-12 08:33:00,69.0,51.0,29.89,East,80,6.0,12.0,52,0.00,,,0.00,,2012-06-12 15:33:00,
2012-06-12 08:43:00,69.0,51.0,29.89,East,80,6.0,12.0,52,0.00,,,0.00,,2012-06-12 15:43:00,
2012-06-12 08:54:00,72.0,52.0,29.89,ENE,60,5.0,10.0,49,0.00,,,0.00,,2012-06-12 15:54:00,
2012-06-12 09:03:00,73.0,52.0,29.89,ENE,76,7.0,10.0,47,0.00,,,0.00,,2012-06-12 16:03:00,
2012-06-12 09:12:00,73.0,52.0,29.89,ENE,76,7.0,10.0,47,0.00,,,0.00,,2012-06-12 16:12:00,
2012-06-12 09:23:00,74.0,51.0,29.89,ENE,67,4.0,9.0,45,0.00,,,0.00,,2012-06-12 16:23:00,
2012-06-12 09:33:00,75.0,52.0,29.88,NE,45,3.0,3.0,45,0.00,,,0.00,,2012-06-12 16:33:00,
2012-06-12 09:43:00,75.0,52.0,29.88,NE,45,3.0,3.0,45,0.00,,,0.00,,2012-06-12 16:43:00,
2012-06-12 09:55:00,76.0,51.0,29.88,North,0,0.0,0.0,41,0.00,,,0.00,,2012-06-12 16:55:00,
2012-06-12 10:03:00,77.0,51.0,29.88,ENE,67,3.0,5.0,41,0.00,,,0.00,,2012-06-12 17:03:00,
2012-06-12 10:12:00,77.0,51.0,29.88,ENE,67,3.0,5.0,41,0.00,,,0.00,,2012-06-12 17:12:00,
2012-06-12 10:23:00,80.0,53.0,29.88,WNW,292,0.0,6.0,40,0.00,,,0.00,,2012-06-12 17:23:00,
2012-06-12 10:33:00,81.0,54.0,29.88,WNW,292,4.0,9.0,39,0.00,,,0.00,,2012-06-12 17:33:00,
2012-06-12 10:43:00,81.0,54.0,29.88,WNW,292,4.0,9.0,39,0.00,,,0.00,,2012-06-12 17:43:00,
2012-06-12 10:54:00,82.0,53.0,29.88,NW,315,0.0,5.0,37,0.00,,,0.00,,2012-06-12 17:54:00,
2012-06-12 11:03:00,83.0,53.0,29.88,ESE,112,6.0,9.0,36,0.00,,,0.00,,2012-06-12 18:03:00,
2012-06-12 11:12:00,83.0,53.0,29.88,ESE,112,6.0,9.0,36,0.00,,,0.00,,2012-06-12 18:12:00,
2012-06-12 11:23:00,84.0,54.0,29.87,NE,47,4.0,8.0,36,0.00,,,0.00,,2012-06-12 18:23:00,
2012-06-12 11:33:00,85.0,53.0,29.87,North,7,5.0,7.0,34,0.00,,,0.00,,2012-06-12 18:33:00,
2012-06-12 11:43:00,85.0,53.0,29.87,North,7,5.0,7.0,34,0.00,,,0.00,,2012-06-12 18:43:00,
2012-06-12 11:54:00,87.0,55.0,29.87,WNW,292,8.0,11.0,34,0.00,,,0.00,,2012-06-12 18:54:00,
2012-06-12 12:03:00,88.0,54.0,29.87,West,270,0.0,6.0,32,0.00,,,0.00,,2012-06-12 19:03:00,
2012-06-12 12:13:00,89.0,54.0,29.86,North,354,6.0,12.0,31,0.00,,,0.00,,2012-06-12 19:13:00,
2012-06-12 12:23:00,89.0,54.0,29.86,North,354,6.0,12.0,31,0.00,,,0.00,,2012-06-12 19:23:00,
2012-06-12 12:33:00,90.0,54.0,29.86,NW,315,3.0,12.0,30,0.00,,,0.00,,2012-06-12 19:33:00,
2012-06-12 12:43:00,90.0,54.0,29.86,NW,315,3.0,12.0,30,0.00,,,0.00,,2012-06-12 19:43:00,
2012-06-12 12:54:00,91.0,55.0,29.86,WSW,256,5.0,8.0,30,0.00,,,0.00,,2012-06-12 19:54:00,
2012-06-12 13:03:00,92.0,53.0,29.85,North,349,3.0,10.0,27,0.00,,,0.00,,2012-06-12 20:03:00,
2012-06-12 13:12:00,92.0,53.0,29.85,North,349,3.0,10.0,27,0.00,,,0.00,,2012-06-12 20:12:00,
2012-06-12 13:23:00,93.0,54.0,29.85,North,0,3.0,6.0,27,0.00,,,0.00,,2012-06-12 20:23:00,
2012-06-12 13:33:00,93.0,53.0,29.85,West,280,4.0,11.0,26,0.00,,,0.00,,2012-06-12 20:33:00,
2012-06-12 13:43:00,93.0,53.0,29.85,West,280,4.0,11.0,26,0.00,,,0.00,,2012-06-12 20:43:00,
2012-06-12 13:54:00,94.0,53.0,29.84,NW,314,7.0,10.0,25,0.00,,,0.00,,2012-06-12 20:54:00,
2012-06-12 14:02:00,94.0,53.0,29.83,SW,225,4.0,9.0,25,0.00,,,0.00,,2012-06-12 21:02:00,
2012-06-12 14:12:00,94.0,53.0,29.83,SW,225,4.0,9.0,25,0.00,,,0.00,,2012-06-12 21:12:00,
2012-06-12 14:23:00,94.0,52.0,29.83,WNW,296,7.0,12.0,24,0.00,,,0.00,,2012-06-12 21:23:00,
2012-06-12 14:33:00,95.0,50.0,29.82,SW,216,4.0,7.0,22,0.00,,,0.00,,2012-06-12 21:33:00,
2012-06-12 14:43:00,95.0,50.0,29.82,SW,216,4.0,7.0,22,0.00,,,0.00,,2012-06-12 21:43:00,
2012-06-12 14:54:00,95.0,50.0,29.82,SSW,208,5.0,9.0,22,0.00,,,0.00,,2012-06-12 21:54:00,
2012-06-12 15:02:00,95.0,50.0,29.82,SSW,195,6.0,9.0,22,0.00,,,0.00,,2012-06-12 22:02:00,
2012-06-12 15:12:00,96.0,50.0,29.81,NW,306,8.0,11.0,21,0.00,,,0.00,,2012-06-12 22:12:00,
2012-06-12 15:23:00,96.0,50.0,29.81,NW,306,8.0,11.0,21,0.00,,,0.00,,2012-06-12 22:23:00,
2012-06-12 15:33:00,96.0,50.0,29.81,West,270,6.0,10.0,21,0.00,,,0.00,,2012-06-12 22:33:00,
2012-06-12 15:43:00,96.0,50.0,29.81,West,270,6.0,10.0,21,0.00,,,0.00,,2012-06-12 22:43:00,
2012-06-12 15:54:00,97.0,46.0,29.80,WNW,292,3.0,6.0,18,0.00,,,0.00,,2012-06-12 22:54:00,
2012-06-12 16:03:00,96.0,47.0,29.81,West,264,7.0,12.0,19,0.00,,,0.00,,2012-06-12 23:03:00,
2012-06-12 16:12:00,96.0,47.0,29.81,West,264,7.0,12.0,19,0.00,,,0.00,,2012-06-12 23:12:00,
2012-06-12 16:23:00,96.0,46.0,29.80,WNW,296,6.0,21.0,18,0.00,,,0.00,,2012-06-12 23:23:00,
2012-06-12 16:33:00,97.0,45.0,29.79,WNW,292,0.0,9.0,17,0.00,,,0.00,,2012-06-12 23:33:00,
2012-06-12 16:43:00,97.0,45.0,29.79,WNW,292,0.0,9.0,17,0.00,,,0.00,,2012-06-12 23:43:00,
2012-06-12 16:54:00,97.0,48.0,29.78,SSW,202,3.0,10.0,19,0.00,,,0.00,,2012-06-12 23:54:00,
2012-06-12 17:03:00,97.0,48.0,29.78,West,271,6.0,12.0,19,0.00,,,0.00,,2012-06-13 00:03:00,
2012-06-12 17:12:00,97.0,48.0,29.78,West,271,6.0,12.0,19,0.00,,,0.00,,2012-06-13 00:12:00,
2012-06-12 17:23:00,97.0,51.0,29.77,WNW,292,3.0,11.0,21,0.00,,,0.00,,2012-06-13 00:23:00,
2012-06-12 17:33:00,97.0,48.0,29.78,SSW,202,4.0,6.0,19,0.00,,,0.00,,2012-06-13 00:33:00,
2012-06-12 17:43:00,97.0,48.0,29.78,SSW,202,4.0,6.0,19,0.00,,,0.00,,2012-06-13 00:43:00,
2012-06-12 17:54:00,97.0,46.0,29.77,South,188,5.0,16.0,18,0.00,,,0.00,,2012-06-13 00:54:00,
2012-06-12 18:03:00,96.0,46.0,29.77,WNW,292,9.0,9.0,18,0.00,,,0.00,,2012-06-13 01:03:00,
2012-06-12 18:12:00,96.0,46.0,29.77,NW,315,0.0,6.0,18,0.00,,,0.00,,2012-06-13 01:12:00,
2012-06-12 18:23:00,96.0,46.0,29.77,NW,315,0.0,6.0,18,0.00,,,0.00,,2012-06-13 01:23:00,
2012-06-12 18:33:00,95.0,43.0,29.77,West,270,4.0,6.0,17,0.00,,,0.00,,2012-06-13 01:33:00,
2012-06-12 18:43:00,95.0,43.0,29.77,West,270,4.0,6.0,17,0.00,,,0.00,,2012-06-13 01:43:00,
2012-06-12 18:54:00,94.0,45.0,29.76,WSW,247,5.0,5.0,19,0.00,,,0.00,,2012-06-13 01:54:00,
2012-06-12 19:03:00,94.0,44.0,29.76,WNW,292,0.0,7.0,18,0.00,,,0.00,,2012-06-13 02:03:00,
2012-06-12 19:12:00,94.0,44.0,29.76,WNW,292,0.0,7.0,18,0.00,,,0.00,,2012-06-13 02:12:00,
2012-06-12 19:23:00,93.0,52.0,29.75,WNW,289,4.0,5.0,25,0.00,,,0.00,,2012-06-13 02:23:00,
2012-06-12 19:33:00,92.0,55.0,29.75,SSW,202,5.0,13.0,29,0.00,,,0.00,,2012-06-13 02:33:00,
2012-06-12 19:43:00,92.0,55.0,29.75,SSW,202,5.0,13.0,29,0.00,,,0.00,,2012-06-13 02:43:00,
2012-06-12 19:54:00,90.0,55.0,29.75,South,189,6.0,13.0,31,0.00,,,0.00,,2012-06-13 02:54:00,
2012-06-12 20:03:00,89.0,56.0,29.75,SSW,202,0.0,8.0,33,0.00,,,0.00,,2012-06-13 03:03:00,
2012-06-12 20:12:00,87.0,56.0,29.75,SSW,202,5.0,11.0,35,0.00,,,0.00,,2012-06-13 03:12:00,
2012-06-12 20:23:00,87.0,56.0,29.75,SSW,202,5.0,11.0,35,0.00,,,0.00,,2012-06-13 03:23:00,
2012-06-12 20:33:00,87.0,56.0,29.76,SW,225,2.0,15.0,35,0.00,,,0.00,,2012-06-13 03:33:00,
2012-06-12 20:43:00,87.0,56.0,29.76,SW,225,2.0,15.0,35,0.00,,,0.00,,2012-06-13 03:43:00,
2012-06-12 20:54:00,85.0,56.0,29.75,SSW,202,5.0,6.0,37,0.00,,,0.00,,2012-06-13 03:54:00,
2012-06-12 21:03:00,84.0,56.0,29.75,South,180,0.0,5.0,38,0.00,,,0.00,,2012-06-13 04:03:00,
2012-06-12 21:13:00,83.0,56.0,29.76,South,180,3.0,3.0,40,0.00,,,0.00,,2012-06-13 04:13:00,
2012-06-12 21:23:00,83.0,56.0,29.76,South,180,3.0,3.0,40,0.00,,,0.00,,2012-06-13 04:23:00,
2012-06-12 21:33:00,82.0,56.0,29.76,SSE,157,3.0,4.0,41,0.00,,,0.00,,2012-06-13 04:33:00,
2012-06-12 21:43:00,82.0,56.0,29.76,SSE,157,3.0,4.0,41,0.00,,,0.00,,2012-06-13 04:43:00,
2012-06-12 21:54:00,79.0,55.0,29.77,SSE,157,3.0,4.0,44,0.00,,,0.00,,2012-06-13 04:54:00,
2012-06-12 22:03:00,79.0,56.0,29.77,ESE,112,0.0,3.0,45,0.00,,,0.00,,2012-06-13 05:03:00,
2012-06-12 22:12:00,77.0,54.0,29.78,ESE,112,0.0,0.0,45,0.00,,,0.00,,2012-06-13 05:12:00,
2012-06-12 22:23:00,77.0,54.0,29.78,ESE,112,0.0,0.0,45,0.00,,,0.00,,2012-06-13 05:23:00,
2012-06-12 22:33:00,77.0,55.0,29.78,South,180,0.0,0.0,46,0.00,,,0.00,,2012-06-13 05:33:00,
2012-06-12 22:43:00,77.0,55.0,29.78,South,180,0.0,0.0,46,0.00,,,0.00,,2012-06-13 05:43:00,
2012-06-12 22:54:00,76.0,54.0,29.79,South,180,3.0,5.0,47,0.00,,,0.00,,2012-06-13 05:54:00,
2012-06-12 23:02:00,74.0,53.0,29.79,SE,135,0.0,0.0,48,0.00,,,0.00,,2012-06-13 06:02:00,
2012-06-12 23:12:00,74.0,53.0,29.79,SE,135,0.0,0.0,48,0.00,,,0.00,,2012-06-13 06:12:00,
2012-06-12 23:23:00,74.0,54.0,29.79,SSE,157,0.0,0.0,49,0.00,,,0.00,,2012-06-13 06:23:00,
2012-06-12 23:33:00,73.0,53.0,29.79,South,180,0.0,0.0,50,0.00,,,0.00,,2012-06-13 06:33:00,
2012-06-12 23:43:00,73.0,53.0,29.79,South,180,0.0,0.0,50,0.00,,,0.00,,2012-06-13 06:43:00,
2012-06-12 23:53:00,73.0,54.0,29.79,South,180,0.0,3.0,51,0.00,,,0.00,,2012-06-13 06:53:00,